{"data":{"norad_id":59750,"intl_designator":"2024-090W","name":"STARLINK-31783","alt_names":[],"object_type":"PAYLOAD","status":"ACTIVE","operator":null,"country":"US","launch_date":"2024-05-13","launch_site_code":"AFETR","launch_vehicle":null,"mission":null,"orbit_class":"UNKNOWN","rcs_meters":null,"size_class":null,"mass_kg":null,"dimensions":null,"purposes":["comms"],"wikipedia_slug":null,"has_3d_model":false,"image_url":null,"decayed_at":null,"tle_current":{"epoch":"2026-05-24T23:32:58.899264Z","epoch_age_seconds":79943,"freshness":"FRESH","line1":"1 59750U 24090W   26144.98123726  .00001584  00000+0  67081-4 0  9999","line2":"2 59750  43.0028 113.0053 0001231 268.6774  91.3937 15.27578790115094","mean_motion":15.2757879,"eccentricity":0.0001231,"inclination_deg":43.0028,"raan_deg":113.0053,"arg_perigee_deg":268.6774,"mean_anomaly_deg":91.3937,"bstar":6.7081e-5,"rev_number":11509,"period_min":94.266823382642,"perigee_km":482.2081067629,"apogee_km":483.89733167178,"semimajor_km":6861.1897192173,"source":"CELESTRAK","updated_at":"2026-05-25T13:38:19.054875Z"}}}